[[{"header":{"parameterUnit":"m.s-1","parameterCategory":1,"la1":30.2991,"la2":30.254,"lo1":-89.0895,"lo2":-89.0444,"dy":0.0017,"dx":0.0017,"nx":28,"ny":28,"refTime":"2025-08-28T21:00:00:Z","depth":0,"parameterNumber":2,"parameterNumberName":"U-component_of_WINDS"},"data":[0,0,0,0,0,0,0,0,0,0,0,0,0,0,0,0,0,0,0,0,0,0,0,0,0,0,0,0,0,0,0,0,0,0,0,0,0,0,0,0,0,0,0,0,0,0,0,0,0,0,0,0,0,0,0,0,0,0,-0.1116,-0.1115,0,-0.1065,-0.1064,-0.1064,-0.1018,-0.1018,-0.1017,-0.1017,-0.0963,-0.0962,-0.0961,0,0,0,0,0,0,0,0,0,0,0,0,0,-0.1173,-0.1172,-0.1116,-0.1115,-0.1115,-0.1065,-0.1064,-0.1063,-0.1018,-0.1018,-0.1017,-0.1017,-0.0963,-0.0962,-0.0961,0,0,0,0,0,0,0,0,0,0,0,0,0,-0.1138,-0.1172,-0.1116,-0.1086,-0.1083,-0.1065,-0.1064,-0.1063,-0.1019,-0.1018,-0.1017,-0.1016,-0.0964,-0.0962,-0.0961,-0.0967,0,0,-0.0956,-0.0956,0,0,0,0,0,0,0,0,-0.114,-0.1136,-0.1091,-0.1088,-0.1085,-0.1047,-0.1064,-0.1031,-0.1019,-0.1043,-0.1017,-0.1016,-0.0991,-0.0988,-0.098,-0.0965,-0.0963,-0.0956,-0.0955,-0.0955,-0.0954,0,0,0,0,0,0,0,-0.1142,-0.1137,-0.1096,-0.1091,-0.1087,-0.1075,-0.1069,-0.1058,-0.1022,-0.1041,-0.1037,-0.1032,-0.0989,-0.0981,-0.0978,-0.0962,-0.0956,-0.0955,-0.0954,-0.0954,-0.0949,-0.095,0,0,0,0,0,0,-0.1149,-0.114,-0.1097,-0.1094,-0.1111,-0.1074,-0.1068,-0.106,-0.1022,-0.1016,-0.1033,-0.103,-0.0984,-0.098,-0.0976,-0.0982,-0.0955,-0.0953,-0.0953,-0.0949,-0.095,-0.095,0,0,0,0,0,0,-0.1151,-0.1146,-0.1099,-0.1116,-0.1109,-0.1074,-0.1066,-0.1059,-0.1051,-0.1016,-0.1009,-0.1031,-0.0983,-0.0978,-0.097,-0.0979,-0.0953,-0.0951,-0.0948,-0.0949,-0.095,-0.0993,0,0,0,0,0,0,-0.1153,-0.1147,-0.115,-0.1116,-0.1108,-0.1095,-0.1066,-0.1059,-0.1049,-0.1045,-0.1013,-0.1007,-0.0982,-0.0972,-0.0969,-0.0977,-0.095,-0.0947,-0.0948,-0.095,-0.0991,-0.0995,-0.0999,0,0,0,0,0,-0.1155,-0.1164,-0.115,-0.1145,-0.1111,-0.1096,-0.1091,-0.1063,-0.105,-0.1052,-0.1029,-0.1008,-0.0978,-0.0972,-0.0967,-0.0975,-0.0946,-0.0948,-0.095,-0.0989,-0.0994,-0.0999,0,0,0,0,0,0,-0.1199,-0.1159,-0.1143,-0.1142,-0.1122,-0.1088,-0.109,-0.107,-0.1054,-0.1051,-0.1017,-0.101,-0.1006,-0.0989,-0.0983,-0.0979,-0.0959,-0.096,-0.0991,-0.0996,-0.1,-0.1005,-0.0949,0,0,0,0,0,-0.1208,-0.1199,-0.1164,-0.1166,-0.1157,-0.1126,-0.1118,-0.1098,-0.1076,-0.1068,-0.1045,-0.1024,-0.101,-0.1002,-0.0987,-0.0987,-0.098,-0.099,-0.0995,-0.0999,-0.1,-0.0999,-0.1003,-0.0956,-0.0956,-0.0956,0,0,-0.1228,-0.1205,-0.1201,-0.1175,-0.1157,-0.1148,-0.1119,-0.1111,-0.1104,-0.1066,-0.1058,-0.104,-0.1014,-0.1011,-0.1008,-0.0997,-0.1011,-0.1001,-0.1004,-0.1003,-0.1001,-0.1006,-0.101,-0.0957,-0.0957,-0.0957,0,0,-0.1259,-0.1241,-0.124,-0.1223,-0.1198,-0.1176,-0.1176,-0.1144,-0.1131,-0.1122,-0.1094,-0.1084,-0.1061,-0.1044,-0.1032,-0.1056,-0.1035,-0.1052,-0.1076,-0.1075,-0.1079,-0.1082,-0.1091,-0.1094,-0.1053,-0.1053,-0.1053,0,-0.1287,-0.1273,-0.1242,-0.1236,-0.1225,-0.1191,-0.119,-0.1174,-0.1145,-0.1138,-0.1126,-0.1096,-0.1076,-0.1068,-0.1074,-0.1066,-0.1064,-0.1056,-0.1081,-0.1084,-0.1086,-0.1094,-0.1098,-0.1056,-0.1055,-0.1055,-0.1055,0,-0.1308,-0.1298,-0.1301,-0.1274,-0.1263,-0.126,-0.1228,-0.122,-0.1201,-0.1181,-0.1171,-0.1146,-0.1126,-0.1122,-0.1103,-0.1111,-0.1105,-0.1087,-0.1067,-0.1093,-0.11,-0.1103,-0.1059,-0.1058,-0.1057,-0.1057,0,0,-0.1367,-0.1323,-0.1324,-0.1311,-0.128,-0.1272,-0.1266,-0.1246,-0.1241,-0.1221,-0.1215,-0.1196,-0.1179,-0.1166,-0.1144,-0.1143,-0.1164,-0.1126,-0.1124,-0.1134,-0.1171,-0.1186,-0.119,-0.1149,-0.115,-0.115,-0.1174,0,-0.1394,-0.1383,-0.1355,-0.1352,-0.1343,-0.1309,-0.1304,-0.1284,-0.1264,-0.1253,-0.123,-0.1218,-0.1196,-0.1188,-0.1186,-0.1162,-0.1171,-0.116,-0.1144,-0.1144,-0.1153,-0.1193,-0.1209,-0.1232,-0.1176,-0.1177,-0.1177,0,-0.1424,-0.1407,-0.1404,-0.1372,-0.1367,-0.1363,-0.1343,-0.1333,-0.1308,-0.1294,-0.1279,-0.1255,-0.1246,-0.1226,-0.1214,-0.1207,-0.1198,-0.1185,-0.1185,-0.1184,-0.1163,-0.1194,-0.1239,-0.1243,-0.1181,-0.1181,-0.118,0,-0.1468,-0.1444,-0.1439,-0.1429,-0.1392,-0.139,-0.1375,-0.135,-0.1339,-0.1321,-0.1314,-0.1294,-0.1284,-0.1269,-0.124,-0.1228,-0.1231,-0.1209,-0.1219,-0.122,-0.1222,-0.1223,-0.1268,-0.1215,-0.1215,-0.1215,-0.1215,0,-0.1502,-0.1502,-0.1459,-0.1456,-0.1454,-0.1421,-0.1419,-0.14,-0.1378,-0.137,-0.1339,-0.1332,-0.1294,-0.1283,-0.1259,-0.1253,-0.1248,-0.1236,-0.123,-0.1239,-0.1241,-0.1234,-0.1232,-0.1215,-0.1215,-0.1215,-0.1215,0,-0.1552,-0.1523,-0.1516,-0.1481,-0.1472,-0.1472,-0.1442,-0.1438,-0.1416,-0.1406,-0.1402,-0.1367,-0.1352,-0.1321,-0.1297,-0.1281,-0.128,-0.1269,-0.1289,-0.1285,-0.1297,-0.1297,-0.134,-0.1345,-0.1289,-0.1289,-0.129,0,-0.1576,-0.1575,-0.154,-0.1533,-0.1519,-0.1508,-0.1497,-0.1464,-0.1454,-0.1426,-0.1425,-0.1407,-0.1391,-0.1368,-0.134,-0.1321,-0.131,-0.1326,-0.1307,-0.1317,-0.1311,-0.1312,-0.1312,-0.1331,-0.1332,-0.1333,-0.1333,0,-0.1622,-0.1608,-0.1594,-0.1576,-0.1564,-0.1548,-0.1529,-0.1525,-0.1487,-0.1477,-0.1462,-0.1449,-0.1425,-0.1408,-0.1385,-0.1367,-0.1344,-0.1339,-0.1341,-0.1351,-0.1363,-0.1358,-0.1302,-0.1339,-0.1338,-0.1338,-0.1338,-0.1337,-0.1661,-0.1658,-0.1633,-0.1619,-0.1602,-0.1585,-0.1579,-0.1556,-0.1543,-0.1521,-0.1501,-0.1487,-0.1462,-0.1428,-0.1413,-0.1401,-0.1389,-0.1391,-0.1392,-0.1393,-0.1398,-0.1364,-0.1396,-0.1396,-0.1396,-0.1395,-0.1395,0,-0.1706,-0.1688,-0.1675,-0.1651,-0.1639,-0.1618,-0.1596,-0.1588,-0.1576,-0.1555,-0.154,-0.1522,-0.1504,-0.1475,-0.1455,-0.1451,-0.144,-0.1447,-0.1447,-0.1444,-0.1408,-0.141,-0.1456,-0.1456,-0.1456,-0.1456,-0.1456,-0.1456,-0.1728,-0.1723,-0.1705,-0.169,-0.1672,-0.1659,-0.1648,-0.1633,-0.1615,-0.1596,-0.1582,-0.1563,-0.1538,-0.1516,-0.1499,-0.149,-0.1485,-0.1496,-0.1484,-0.1452,-0.1446,-0.1441,-0.1442,-0.1494,-0.1495,-0.152,-0.1521,-0.1521]},{"header":{"parameterUnit":"m.s-1","parameterCategory":1,"la1":30.2991,"la2":30.254,"lo1":-89.0895,"lo2":-89.0444,"dy":0.0017,"dx":0.0017,"nx":28,"ny":28,"refTime":"2025-08-28T21:00:00:Z","depth":0,"parameterNumber":3,"parameterNumberName":"V-component_of_WINDS"},"data":[0,0,0,0,0,0,0,0,0,0,0,0,0,0,0,0,0,0,0,0,0,0,0,0,0,0,0,0,0,0,0,0,0,0,0,0,0,0,0,0,0,0,0,0,0,0,0,0,0,0,0,0,0,0,0,0,0,0,-0.6128,-0.6128,0,-0.6129,-0.6129,-0.6129,-0.611,-0.6109,-0.6109,-0.6108,-0.611,-0.611,-0.6111,0,0,0,0,0,0,0,0,0,0,0,0,0,-0.6109,-0.6109,-0.6128,-0.6128,-0.6128,-0.6129,-0.6129,-0.6129,-0.611,-0.6109,-0.6109,-0.6108,-0.6109,-0.611,-0.6111,0,0,0,0,0,0,0,0,0,0,0,0,0,-0.6115,-0.611,-0.6128,-0.6119,-0.6118,-0.6129,-0.6129,-0.6129,-0.611,-0.6109,-0.6109,-0.6108,-0.6109,-0.611,-0.6111,-0.6131,0,0,-0.6113,-0.6114,0,0,0,0,0,0,0,0,-0.6114,-0.6115,-0.612,-0.6119,-0.6119,-0.6119,-0.6123,-0.613,-0.611,-0.6113,-0.6108,-0.6108,-0.6113,-0.6114,-0.6116,-0.6131,-0.6131,-0.6113,-0.6114,-0.6114,-0.6114,0,0,0,0,0,0,0,-0.6114,-0.6115,-0.6129,-0.612,-0.6119,-0.6114,-0.6114,-0.6124,-0.6118,-0.6113,-0.6111,-0.6112,-0.6113,-0.6115,-0.6116,-0.6131,-0.6113,-0.6114,-0.6114,-0.6115,-0.6164,-0.6165,0,0,0,0,0,0,-0.6115,-0.6115,-0.6129,-0.6129,-0.6114,-0.6115,-0.6115,-0.6119,-0.6117,-0.6116,-0.6113,-0.6111,-0.6114,-0.6115,-0.6115,-0.6139,-0.6114,-0.6115,-0.6115,-0.6163,-0.6164,-0.6165,0,0,0,0,0,0,-0.6114,-0.6116,-0.6129,-0.6121,-0.6123,-0.6116,-0.6121,-0.612,-0.6122,-0.6117,-0.6116,-0.6116,-0.6113,-0.6114,-0.6127,-0.6139,-0.6115,-0.6116,-0.6162,-0.6163,-0.6164,-0.6187,0,0,0,0,0,0,-0.6114,-0.6116,-0.6124,-0.6122,-0.6123,-0.6141,-0.6122,-0.612,-0.6123,-0.6121,-0.612,-0.6119,-0.6113,-0.6126,-0.6128,-0.614,-0.6116,-0.6161,-0.6163,-0.6164,-0.6185,-0.6189,-0.6192,0,0,0,0,0,-0.6113,-0.613,-0.6125,-0.6126,-0.6133,-0.6141,-0.6142,-0.6135,-0.6125,-0.6132,-0.6129,-0.6119,-0.6137,-0.6128,-0.613,-0.6142,-0.616,-0.6162,-0.6164,-0.6184,-0.6188,-0.6192,0,0,0,0,0,0,-0.6134,-0.613,-0.6123,-0.614,-0.6141,-0.6138,-0.6148,-0.614,-0.6144,-0.6141,-0.6132,-0.6132,-0.6146,-0.6145,-0.6135,-0.6161,-0.6147,-0.6149,-0.6162,-0.6166,-0.6169,-0.6169,-0.6117,0,0,0,0,0,-0.6141,-0.6148,-0.6144,-0.6159,-0.616,-0.6154,-0.6157,-0.6151,-0.6152,-0.6153,-0.615,-0.6151,-0.6157,-0.6161,-0.6167,-0.6185,-0.6184,-0.6194,-0.6198,-0.62,-0.6203,-0.6212,-0.6216,-0.6171,-0.6171,-0.6171,0,0,-0.6155,-0.6153,-0.6159,-0.6164,-0.6164,-0.6172,-0.6154,-0.6164,-0.6169,-0.6154,-0.6166,-0.6165,-0.6165,-0.6181,-0.6188,-0.618,-0.6215,-0.6203,-0.6205,-0.6206,-0.6214,-0.6219,-0.6223,-0.6172,-0.6172,-0.6172,0,0,-0.6184,-0.6183,-0.6196,-0.6196,-0.6197,-0.6192,-0.6195,-0.6193,-0.6192,-0.6204,-0.6192,-0.6199,-0.6209,-0.621,-0.6212,-0.6241,-0.6232,-0.6243,-0.6261,-0.627,-0.6274,-0.6277,-0.6287,-0.6291,-0.6245,-0.6245,-0.6245,0,-0.6201,-0.6212,-0.6203,-0.6213,-0.6216,-0.6202,-0.6215,-0.6215,-0.6218,-0.622,-0.6211,-0.6224,-0.6223,-0.6239,-0.6246,-0.6248,-0.6251,-0.6243,-0.6274,-0.6277,-0.628,-0.629,-0.6293,-0.6246,-0.6246,-0.6246,-0.6246,0,-0.6233,-0.6241,-0.6251,-0.6253,-0.6257,-0.6268,-0.6261,-0.6266,-0.6259,-0.6256,-0.6268,-0.6267,-0.6272,-0.6275,-0.6269,-0.629,-0.6285,-0.6276,-0.6261,-0.6286,-0.6295,-0.6298,-0.6248,-0.6248,-0.6247,-0.6247,0,0,-0.6276,-0.6273,-0.6277,-0.6277,-0.6277,-0.6283,-0.6293,-0.6297,-0.6302,-0.6303,-0.6312,-0.6321,-0.6312,-0.6314,-0.6308,-0.6316,-0.6339,-0.6305,-0.6305,-0.6312,-0.6362,-0.6369,-0.6374,-0.6333,-0.6334,-0.6334,-0.6362,0,-0.6304,-0.6322,-0.6314,-0.6332,-0.634,-0.6326,-0.6336,-0.6336,-0.6333,-0.6339,-0.6335,-0.6342,-0.6329,-0.633,-0.6338,-0.6335,-0.6349,-0.6333,-0.6341,-0.6341,-0.6341,-0.6379,-0.6386,-0.6413,-0.6365,-0.6366,-0.6367,0,-0.6339,-0.6342,-0.6362,-0.6359,-0.6362,-0.637,-0.6374,-0.6379,-0.6379,-0.6376,-0.6379,-0.637,-0.638,-0.6366,-0.6379,-0.6368,-0.6371,-0.637,-0.6371,-0.6372,-0.6356,-0.638,-0.6421,-0.6425,-0.6372,-0.6372,-0.6371,0,-0.6369,-0.6377,-0.639,-0.6391,-0.6389,-0.6395,-0.6394,-0.6393,-0.6397,-0.6399,-0.6401,-0.6405,-0.6408,-0.6411,-0.6404,-0.6394,-0.6419,-0.6403,-0.6416,-0.6417,-0.6422,-0.6422,-0.6464,-0.6424,-0.6424,-0.6424,-0.6424,0,-0.6401,-0.6413,-0.6403,-0.6411,-0.6424,-0.6415,-0.6428,-0.6426,-0.6426,-0.6433,-0.6422,-0.6429,-0.6419,-0.6425,-0.6419,-0.6431,-0.6433,-0.6431,-0.6429,-0.6432,-0.6432,-0.6434,-0.6432,-0.6425,-0.6425,-0.6425,-0.6424,0,-0.6436,-0.643,-0.6443,-0.6439,-0.6439,-0.6448,-0.6445,-0.6452,-0.6448,-0.6457,-0.6459,-0.6453,-0.6459,-0.6452,-0.6458,-0.6455,-0.6471,-0.6467,-0.6471,-0.647,-0.6483,-0.6482,-0.6528,-0.6534,-0.649,-0.649,-0.6491,0,-0.6457,-0.6466,-0.6464,-0.6468,-0.6468,-0.6474,-0.6477,-0.6468,-0.6472,-0.6473,-0.6479,-0.6485,-0.6489,-0.6499,-0.6495,-0.65,-0.6496,-0.6511,-0.6496,-0.6499,-0.6496,-0.6496,-0.6496,-0.6514,-0.6515,-0.6515,-0.6516,0,-0.6496,-0.6492,-0.6497,-0.65,-0.6504,-0.6507,-0.6508,-0.6512,-0.6503,-0.6508,-0.6514,-0.6517,-0.6523,-0.6528,-0.6531,-0.6531,-0.6522,-0.652,-0.6524,-0.6527,-0.6529,-0.6528,-0.648,-0.652,-0.6519,-0.6519,-0.6519,-0.6519,-0.6524,-0.6532,-0.6531,-0.6537,-0.6537,-0.6539,-0.6545,-0.6542,-0.6547,-0.6551,-0.6545,-0.6553,-0.6553,-0.6556,-0.6556,-0.6562,-0.6555,-0.656,-0.6561,-0.6563,-0.6565,-0.6528,-0.6563,-0.6562,-0.6562,-0.6562,-0.6562,0,-0.6562,-0.6561,-0.6566,-0.6569,-0.6573,-0.6564,-0.6565,-0.657,-0.6577,-0.6577,-0.6581,-0.6588,-0.6593,-0.659,-0.6594,-0.6599,-0.6595,-0.6601,-0.66,-0.66,-0.657,-0.6567,-0.6604,-0.6604,-0.6604,-0.6604,-0.6604,-0.6604,-0.6583,-0.6595,-0.6591,-0.6603,-0.6601,-0.6609,-0.661,-0.6612,-0.6612,-0.6621,-0.6625,-0.6622,-0.6621,-0.6625,-0.6629,-0.6628,-0.663,-0.6637,-0.6634,-0.6607,-0.6603,-0.6599,-0.6596,-0.6638,-0.6638,-0.6664,-0.6664,-0.6664]}]]